Weather in Gabrovo

Bulgaria     42°52′09″N   25°18′51″E
temp.,
°C
wind,
m/s
gust,
m/s
humid.,
%
clouds,
%
prec.,
mm/h
press.,
hPa
HPBL,
m
21 october, thu
thu2100:00+6ssw23890 0.0 102747
03:00+5ssw23870 0.0 102547
06:00+5ssw23870 0.0 102346
09:00+7ssw34810 0.0 1022117
12:00+12s34620 0.0 1020401
15:00+15s33540 0.0 1017569
18:00+11s33770 0.0 101757
21:00+8sw11790 0.0 101820
22 october, fri
fri2200:00+9sw11600 0.0 101811
03:00+9sw11570 0.0 101812
06:00+9sw116071 0.0 101812
09:00+11sw11615 0.0 101918
12:00+16s224968 0.0 1019503
15:00+17sse2248100 0.0 1018814
18:00+12s2273100 0.0 101821
21:00+10sw118197 0.0 101921
23 october, sat
sat2300:00+10sw117455 0.0 101914
03:00+11w1163100 0.0 101911
06:00+11nw1164100 0.0 101910
09:00+12nnw2266100 0.0 102037
12:00+15n2359100 0.0 1021677
15:00+16n3360100 0.0 10201186
18:00+13n2480100 0.0 1022180
21:00+11nnw2483100 0.1 1023134
24 october, sun
sun2400:00+9nnw3583100 0.4 1024297
03:00+7nnw3694100 3.1 1025237
06:00+8nnw3696100 4.2 1025359
09:00+7nnw478498 6.0 1027570
12:00+8nnw58591 0.0 1029986
15:00+9nnw575437 0.0 10291268
18:00+5n34805 0.0 1031208
21:00+3n12904 0.0 103327
25 october, mon
mon2500:00+2nne12840 0.0 103317
03:00+2ssw11740 0.0 103311
06:00+1ssw11820 0.0 103323
09:00+3s12680 0.0 103393
12:00+7s33532 0.0 1033786
15:00+9sse21480 0.0 1030881
18:00+5sse22680 0.0 103035
21:00+2s22820 0.0 103240